Location: Newark
(35.6799°N, 139.7636°E)
Time: 20:57:15
(UTC+00:00)

Vanguard 1 Rocket - Pass Details

Date: 17 December 2019
Orbit: 651 x 4226 km, 34.3° (Epoch: 28 January)

Event Time Altitude Azimuth Distance (km) Brightness Sun altitude
Rises 10:52:45 0° 254° (WSW) 8,400 13.1 -40.4°
Reaches altitude 10° 10:58:57 10° 254° (WSW) 7,169 12.5 -41.6°
Enters shadow 11:21:12 81° 194° (SSW) 2,763 9.5 -46.2°
